Simultaneous Nadir Overpasses (SNOs) Predictions

Prediction of SNOs between GOES-17 and AQUA Satellite Orbit:

Table of predicted SNOs for the next 14.0 days since TLE Epoch: 11/19/2022
Index Date Time (GOES-17) GOES-17 Lat,Lon AQUA Lat,Lon Distance(km) Time Diff (sec)
1 11/20/2022 22:49:41 -0.00,-137.33 0.15,-136.57 85.95 80
2 11/21/2022 11:08:05 0.00,-137.33 0.95,-141.67 494.87 80
3 11/22/2022 22:36:47 -0.01,-137.31 0.82,-133.43 441.72 80
4 11/23/2022 10:55:11 0.00,-137.31 0.27,-138.53 139.36 80
5 11/25/2022 10:44:57 0.01,-137.28 -0.42,-135.39 215.12 80
6 11/25/2022 23:03:30 -0.01,-137.27 -0.69,-140.53 370.91 80
7 11/27/2022 22:50:35 -0.00,-137.23 -0.03,-137.39 17.42 80
8 11/29/2022 22:40:20 0.00,-137.19 0.64,-134.24 335.86 80
9 11/30/2022 11:01:24 -0.00,-137.18 0.45,-139.34 245.55 80
10 12/02/2022 10:45:48 -0.00,-137.14 -0.19,-136.19 107.80 80
11 12/02/2022 23:07:01 0.00,-137.13 -0.89,-141.33 478.41 80
